| time (UTC) | temp F | wind direction | speed MPH | gust MPH | rain 1hr in | rain 24hr in | rain mn in | humidity % | barometer mb |
| 20260505163357 | 0 | 0.0 | 3.0 | 0.00 | 0.00 | 0.00 | 1004.5 | ||
| 20260505162327 | 0 | 1.0 | 3.0 | 0.00 | 0.00 | 0.00 | 1004.4 | ||
| 20260505161257 | 0 | 0.0 | 1.0 | 0.00 | 0.00 | 0.00 | 1004.2 | ||
| 20260505160226 | 0 | 1.0 | 3.0 | 0.00 | 0.00 | 0.00 | 1004.4 | ||
| 20260505153055 | 0 | 3.0 | 4.0 | 0.00 | 0.00 | 0.00 | 1004.5 | ||
| 20260505152023 | 0 | 1.0 | 1.0 | 0.00 | 0.00 | 0.00 | 1004.5 | ||
| 20260505150952 | 0 | 0.0 | 3.0 | 0.00 | 0.00 | 0.00 | 1004.4 | ||
| 20260505125009 | 0 | 2.0 | 3.0 | 0.00 | 0.00 | 0.00 | 1005.0 | ||
| 20260505123936 | 0 | 0.0 | 1.0 | 0.00 | 0.00 | 0.00 | 1005.0 | ||
| 20260505122907 | 0 | 0.0 | 3.0 | 0.00 | 0.00 | 0.00 | 1005.0 | ||
| 20260505121837 | 0 | 2.0 | 2.0 | 0.00 | 0.00 | 0.00 | 1004.9 | ||
| 20260505120807 | 0 | 1.0 | 3.0 | 0.00 | 0.00 | 0.00 | 1004.8 | ||
| 20260505115736 | 0 | 0.0 | 2.0 | 0.00 | 0.00 | 0.00 | 1005.0 | ||
| 20260505114707 | 0 | 1.0 | 1.0 | 0.00 | 0.00 | 0.00 | 1004.9 | ||
| 20260505113637 | 0 | 2.0 | 2.0 | 0.00 | 0.00 | 0.00 | 1004.9 | ||
| 20260505112607 | 0 | 0.0 | 1.0 | 0.00 | 0.00 | 0.00 | 1004.9 | ||
| 20260505111538 | 0 | 0.0 | 0.0 | 0.00 | 0.00 | 0.00 | 1005.1 | ||
| 20260505110507 | 0 | 1.0 | 2.0 | 0.00 | 0.00 | 0.00 | 1005.0 | ||
| 20260505101848 | 0 | 0.0 | 0.0 | 0.00 | 0.00 | 0.00 | 1004.9 | ||
| 20260505100818 | 0 | 0.0 | 0.0 | 0.00 | 0.00 | 0.00 | 1005.0 | ||
| 20260505094613 | 0 | 0.0 | 1.0 | 0.00 | 0.00 | 0.00 | 1005.0 | ||
| 20260505093545 | 0 | 1.0 | 2.0 | 0.00 | 0.00 | 0.00 | 1004.9 | ||
| 20260505092310 | 0 | 0.0 | 0.0 | 0.00 | 0.00 | 0.00 | 1004.8 | ||
| 20260505090931 | 0 | 0.0 | 0.0 | 0.00 | 0.00 | 0.00 | 1004.8 | ||
| 20260505085901 | 0 | 0.0 | 0.0 | 0.00 | 0.00 | 0.00 | 1004.7 | ||
| 20260505084214 | 0 | 0.0 | 1.0 | 0.00 | 0.00 | 0.00 | 1004.6 | ||
| 20260505083142 | 0 | 0.0 | 0.0 | 0.00 | 0.00 | 0.00 | 1004.5 | ||
| 20260505081703 | 0 | 1.0 | 1.0 | 0.00 | 0.00 | 0.00 | 1004.4 | ||
| 20260505080630 | 0 | 0.0 | 0.0 | 0.00 | 0.00 | 0.00 | 1004.4 | ||
| 20260505075600 | 0 | 0.0 | 0.0 | 0.00 | 0.00 | 0.00 | 1004.5 | ||
| 20260505074429 | 0 | 2.0 | 3.0 | 0.00 | 0.00 | 0.00 | 1004.3 | ||
| 20260505073359 | 0 | 0.0 | 5.0 | 0.00 | 0.00 | 0.00 | 1004.6 | ||
| 20260505072327 | 0 | 2.0 | 4.0 | 0.00 | 0.00 | 0.00 | 1004.5 | ||
| 20260505071249 | 0 | 0.0 | 1.0 | 0.00 | 0.00 | 0.00 | 1004.0 | ||
| 20260505070117 | 0 | 0.0 | 3.0 | 0.00 | 0.00 | 0.00 | 1003.9 | ||
| 20260505065047 | 0 | 0.0 | 1.0 | 0.00 | 0.00 | 0.00 | 1003.7 | ||
| 20260505063916 | 0 | 0.0 | 0.0 | 0.00 | 0.00 | 0.00 | 1003.6 | ||
| 20260505062641 | 0 | 0.0 | 0.0 | 0.00 | 0.00 | 0.00 | 1003.5 | ||
| 20260505061509 | 0 | 0.0 | 0.0 | 0.00 | 0.00 | 0.00 | 1003.5 | ||
| 20260505060132 | 0 | 0.0 | 0.0 | 0.00 | 0.00 | 0.00 | 1003.5 | ||
| 20260505054857 | 0 | 0.0 | 1.0 | 0.00 | 0.00 | 0.00 | 1003.4 | ||
| 20260505053828 | 0 | 0.0 | 0.0 | 0.00 | 0.00 | 0.00 | 1003.1 | ||
| 20260505051628 | 0 | 0.0 | 1.0 | 0.00 | 0.00 | 0.00 | 1003.0 | ||
| 20260505050559 | 0 | 0.0 | 1.0 | 0.00 | 0.00 | 0.00 | 1003.0 | ||
| 20260505041127 | 0 | 0.0 | 1.0 | 0.00 | 0.00 | 0.00 | 1003.0 | ||
| 20260505040058 | 0 | 0.0 | 2.0 | 0.00 | 0.00 | 0.00 | 1003.0 | ||
| 20260505035029 | 0 | 0.0 | 3.0 | 0.00 | 0.00 | 0.00 | 1003.0 | ||
| 20260505033958 | 0 | 0.0 | 1.0 | 0.00 | 0.00 | 0.00 | 1003.1 | ||
| 20260505032924 | 0 | 2.0 | 5.0 | 0.00 | 0.00 | 0.00 | 1003.0 | ||
| 20260505031852 | 0 | 3.0 | 4.0 | 0.00 | 0.00 | 0.00 | 1003.5 | ||
| 20260505030822 | 0 | 1.0 | 3.0 | 0.00 | 0.00 | 0.00 | 1003.9 | ||
| 20260505025754 | 0 | 1.0 | 1.0 | 0.00 | 0.00 | 0.00 | 1003.8 | ||
| 20260505024725 | 0 | 1.0 | 3.0 | 0.00 | 0.00 | 0.00 | 1003.9 | ||
| 20260505023657 | 0 | 0.0 | 1.0 | 0.00 | 0.00 | 0.00 | 1004.1 | ||
| 20260505022623 | 0 | 0.0 | 0.0 | 0.00 | 0.00 | 0.00 | 1004.4 | ||
| 20260505021554 | 0 | 1.0 | 3.0 | 0.00 | 0.00 | 0.00 | 1004.4 | ||
| 20260505020525 | 0 | 2.0 | 3.0 | 0.00 | 0.00 | 0.00 | 1004.2 | ||
| 20260505015455 | 0 | 0.0 | 4.0 | 0.00 | 0.00 | 0.00 | 1004.3 | ||
| 20260505014426 | 0 | 2.0 | 3.0 | 0.00 | 0.00 | 0.00 | 1004.1 | ||
| 20260505013357 | 0 | 1.0 | 2.0 | 0.00 | 0.00 | 0.00 | 1004.3 | ||
| 20260505012328 | 0 | 0.0 | 3.0 | 0.00 | 0.00 | 0.00 | 1004.5 | ||
| 20260505011259 | 0 | 1.0 | 3.0 | 0.00 | 0.00 | 0.00 | 1004.9 | ||
| 20260505010228 | 0 | 2.0 | 3.0 | 0.00 | 0.00 | 0.00 | 1005.1 | ||
| 20260505005159 | 0 | 1.0 | 2.0 | 0.00 | 0.00 | 0.00 | 1005.3 | ||
| 20260505004130 | 0 | 1.0 | 2.0 | 0.00 | 0.00 | 0.00 | 1005.5 | ||
| 20260505003100 | 0 | 0.0 | 1.0 | 0.00 | 0.00 | 0.00 | 1005.5 | ||
| 20260505002032 | 0 | 1.0 | 2.0 | 0.00 | 0.00 | 0.00 | 1005.9 | ||
| 20260505000900 | 0 | 0.0 | 1.0 | 0.00 | 0.00 | 0.00 | 1006.1 | ||
| 20260504235831 | 0 | 0.0 | 3.0 | 0.00 | 0.00 | 0.00 | 1006.0 | ||
| 20260504234800 | 0 | 1.0 | 1.0 | 0.00 | 0.00 | 0.00 | 1006.1 | ||
| 20260504233733 | 0 | 1.0 | 3.0 | 0.00 | 0.00 | 0.00 | 1006.2 | ||
| 20260504232705 | 0 | 2.0 | 3.0 | 0.00 | 0.00 | 0.00 | 1006.3 | ||
| 20260504231637 | 0 | 2.0 | 4.0 | 0.00 | 0.00 | 0.00 | 1006.6 | ||
| 20260504230604 | 0 | 2.0 | 3.0 | 0.00 | 0.00 | 0.00 | 1006.8 | ||
| 20260504225535 | 0 | 2.0 | 4.0 | 0.00 | 0.00 | 0.00 | 1007.0 | ||
| 20260504224507 | 0 | 2.0 | 3.0 | 0.00 | 0.00 | 0.00 | 1007.1 | ||
| 20260504223438 | 0 | 1.0 | 3.0 | 0.07 | 0.00 | 0.00 | 1007.2 | ||
| 20260504222409 | 0 | 1.0 | 1.0 | 0.07 | 0.00 | 0.00 | 1007.4 | ||
| 20260504221340 | 0 | 1.0 | 3.0 | 0.07 | 0.00 | 0.00 | 1007.2 | ||
| 20260504220312 | 0 | 0.0 | 2.0 | 0.07 | 0.00 | 0.00 | 1007.3 | ||
| 20260504215243 | 0 | 0.0 | 2.0 | 0.07 | 0.00 | 0.00 | 1007.5 | ||
| 20260504214215 | 0 | 1.0 | 2.0 | 0.03 | 0.00 | 0.00 | 1008.0 | ||
| 20260504213146 | 0 | 0.0 | 1.0 | 0.00 | 0.00 | 0.00 | 1007.9 | ||
| 20260504212117 | 0 | 0.0 | 1.0 | 0.00 | 0.00 | 0.00 | 1008.0 | ||
| 20260504211048 | 0 | 0.0 | 1.0 | 0.00 | 0.00 | 0.00 | 1008.1 | ||
| 20260504210020 | 0 | 0.0 | 3.0 | 0.00 | 0.00 | 0.00 | 1008.2 | ||
| 20260504204939 | 0 | 0.0 | 1.0 | 0.00 | 0.00 | 0.00 | 1008.2 | ||
| 20260504203910 | 0 | 1.0 | 4.0 | 0.00 | 0.00 | 0.00 | 1008.5 | ||
| 20260504202841 | 0 | 0.0 | 2.0 | 0.00 | 0.00 | 0.00 | 1008.5 | ||
| 20260504201811 | 0 | 0.0 | 1.0 | 0.00 | 0.00 | 0.00 | 1008.4 | ||
| 20260504200741 | 0 | 1.0 | 4.0 | 0.00 | 0.00 | 0.00 | 1008.3 | ||
| 20260504195710 | 0 | 2.0 | 4.0 | 0.00 | 0.00 | 0.00 | 1008.5 | ||
| 20260504194640 | 0 | 0.0 | 2.0 | 0.00 | 0.00 | 0.00 | 1008.5 | ||
| 20260504193612 | 0 | 0.0 | 4.0 | 0.00 | 0.00 | 0.00 | 1008.4 | ||
| 20260504192543 | 0 | 2.0 | 6.0 | 0.00 | 0.00 | 0.00 | 1008.8 | ||
| 20260504191512 | 0 | 1.0 | 3.0 | 0.00 | 0.00 | 0.00 | 1008.9 | ||
| 20260504190443 | 0 | 1.0 | 2.0 | 0.00 | 0.00 | 0.00 | 1008.9 | ||
| 20260504185412 | 0 | 2.0 | 3.0 | 0.00 | 0.00 | 0.00 | 1008.6 | ||
| 20260504184344 | 0 | 1.0 | 3.0 | 0.00 | 0.00 | 0.00 | 1008.5 | ||
| 20260504183303 | 0 | 0.0 | 3.0 | 0.00 | 0.00 | 0.00 | 1008.6 | ||
| 20260504182233 | 0 | 1.0 | 4.0 | 0.00 | 0.00 | 0.00 | 1008.2 | ||
| 20260504181201 | 0 | 1.0 | 4.0 | 0.00 | 0.00 | 0.00 | 1008.3 | ||
| 20260504180133 | 0 | 1.0 | 4.0 | 0.00 | 0.00 | 0.00 | 1008.6 | ||
| 20260504175104 | 0 | 1.0 | 1.0 | 0.00 | 0.00 | 0.00 | 1008.6 | ||
| 20260504174034 | 0 | 0.0 | 2.0 | 0.00 | 0.00 | 0.00 | 1008.6 | ||
| 20260504173004 | 0 | 0.0 | 4.0 | 0.00 | 0.00 | 0.00 | 1008.6 | ||
| 20260504171934 | 0 | 1.0 | 3.0 | 0.00 | 0.00 | 0.00 | 1008.7 | ||
| 20260504170903 | 0 | 2.0 | 4.0 | 0.00 | 0.00 | 0.00 | 1008.7 |